sat.trackr.live / text

‹ back to catalog

WILDFIRE 9

NORAD 57765 · 2023-133J

PAYLOAD ACTIVE UNKNOWN

§ Identity

Operator
Country
US
Launch date
2023-09-02
Launch site
AFWTR
Launch vehicle
Mass (kg)
RCS (m²)

External: N2YO · Heavens-Above · Gunter

§ Orbital elements

Epoch: 2026-09-21T18:18:26.909280Z

Period
103.94 min
Inclination
81.0002°
Eccentricity
0.0007127
Mean motion
13.85441760 rev/d
Perigee alt
939.4 km
Apogee alt
949.9 km
Semi-major
7,322.8 km
B*
4.7660e-5
RAAN
275.2831°
Arg perigee
110.7001°
Mean anomaly
249.4920°
Rev number
15,439

§ Raw data

WILDFIRE 91 57765U 23133J   26264.76281145  .00000065  00000+0  47660-4 0  99932 57765  81.0002 275.2831 0007127 110.7001 249.4920 13.85441760154399

JSON: /api/v1/satellites/57765 · /tle

For live sub-satellite position, see the globe view (requires WebGL).

§ Visibility from observer

Set your observer location to see the next 7 days of passes ≥ 10°. The values pass through the URL so the page stays shareable.

No JS? Fill the form by hand. The geolocation button needs JavaScript.

§ Radio — SatNOGS DB

ModeDescriptionDownlinkUplink
FM S-band telemetry 2.278 GHz

1 transmitter · refreshed weekly from db.satnogs.org